Vero Beach, FL

1:09 PM EST on January 19, 2018 (GMT -0500)
Vero Beach Municipal

Weather History for KVRB - September, 2011

Change the Weather History Date:

Wednesday, September 7, 2011

  Actual Average Record
Temperature  
Mean Temperature 81 °F 81 °F  
Max Temperature 88 °F 89 °F 94 °F (1983)
Min Temperature 73 °F 74 °F 69 °F (1984)
Degree Days  
Heating Degree Days 0 0  
Month to date heating degree days 0 0  
Since 1 July heating degree days 0 0  
Cooling Degree Days 16 16  
Month to date cooling degree days 113 112  
Year to date cooling degree days 2666 2410  
Growing Degree Days 30 (Base 50)    
Moisture  
Dew Point 72 °F    
Average Humidity 80    
Maximum Humidity 94    
Minimum Humidity 65    
Precipitation  
Precipitation 0.76 in 0.21 in 1.44 in (1953)
Month to date precipitation 2.94 1.61  
Year to date precipitation 31.31 36.31  
Sea Level Pressure  
Sea Level Pressure 29.94 in    
Wind  
Wind Speed 3 mph (SW)    
Max Wind Speed 22 mph    
Max Gust Speed 28 mph    
Visibility 8 miles    
Events Rain , Thunderstorm    
T = Trace of Precipitation, MM = Missing Value Source: NWS Daily Summary

Daily Weather History Graph

Daily Weather History Graph

Search for Another Location

Airport or City:

Trip Planner

Search our weather history database for the weather conditions in past years. The results will help you decide how hot, cold, wet, or windy it might be!

Date:

Astronomy

Sep. 07, 2011 Rise Set
Actual Time 7:03 AM EDT 7:35 PM EDT
Civil Twilight 6:39 AM EDT 7:59 PM EDT
Nautical Twilight 6:11 AM EDT 8:27 PM EDT
Astronomical Twilight 5:43 AM EDT 8:55 PM EDT
Moon 4:34 PM EDT (9/7) 2:38 AM EDT (9/7)
Length of Visible Light 13h 19m
Length of Day
12h 32m
Waxing Gibbous, 79% of the Moon is Illuminated
Sep 7
Waxing Gibbous
Sep 12
Full
Sep 20
Last Quarter
Sep 27
New
Oct 3
First Quarter

Hourly Weather History & Observations

Time (EDT) Temp. Heat Index Dew Point Humidity Pressure Visibility Wind Dir Wind Speed Gust Speed Precip Events Conditions
12:53 AM 75.9 °F - 71.1 °F 85% 29.94 in 10.0 mi SSW 11.5 mph - N/A   Clear
1:53 AM 75.0 °F - 71.1 °F 87% 29.91 in 10.0 mi South 5.8 mph - N/A   Clear
2:53 AM 75.2 °F - 71.6 °F 89% 29.92 in 10.0 mi SW 3.5 mph - N/A   Clear
3:53 AM 73.9 °F - 72.0 °F 93% 29.92 in 10.0 mi SW 3.5 mph - N/A   Clear
4:53 AM 73.9 °F - 72.0 °F 93% 29.92 in 10.0 mi WSW 4.6 mph - N/A   Clear
5:53 AM 73.0 °F - 72.0 °F 96% 29.92 in 10.0 mi West 3.5 mph - N/A   Clear
6:53 AM 73.0 °F - 71.1 °F 93% 29.93 in 10.0 mi Calm Calm - N/A   Clear
7:53 AM 75.0 °F - 72.0 °F 90% 29.94 in 10.0 mi Calm Calm - N/A   Partly Cloudy
8:53 AM 78.1 °F - 73.0 °F 84% 29.94 in 10.0 mi Calm Calm - N/A   Clear
9:53 AM 81.0 °F 85.8 °F 73.0 °F 77% 29.96 in 10.0 mi WSW 3.5 mph - N/A   Clear
10:53 AM 82.4 °F 88.2 °F 73.4 °F 74% 29.97 in 10.0 mi Calm Calm - N/A   Scattered Clouds
11:53 AM 86.0 °F 93.4 °F 73.4 °F 66% 29.96 in 10.0 mi Calm Calm - N/A   Partly Cloudy
12:53 PM 84.0 °F 91.2 °F 73.9 °F 72% 29.95 in 10.0 mi ENE 4.6 mph - N/A   Mostly Cloudy
1:53 PM 84.0 °F 91.2 °F 73.9 °F 72% 29.93 in 10.0 mi ENE 5.8 mph - N/A   Partly Cloudy
2:23 PM 82.4 °F 88.2 °F 73.4 °F 74% 29.93 in 10.0 mi NE 4.6 mph - N/A Thunderstorm Scattered Clouds
2:30 PM 80.6 °F 85.4 °F 73.4 °F 79% 29.95 in 9.0 mi SSW 20.7 mph 27.6 mph 0.00 in Rain , Thunderstorm Thunderstorms and Rain
2:33 PM 78.8 °F - 71.6 °F 78% 29.95 in 2.0 mi South 18.4 mph 27.6 mph 0.00 in Rain , Thunderstorm Thunderstorms and Rain
2:53 PM 73.9 °F - 71.1 °F 91% 29.93 in 3.0 mi Variable 4.6 mph - 0.49 in Rain , Thunderstorm Thunderstorms and Rain
3:04 PM 75.2 °F - 71.6 °F 89% 29.92 in 7.0 mi North 8.1 mph - 0.00 in Rain , Thunderstorm Thunderstorms and Rain
3:18 PM 75.2 °F - 73.4 °F 94% 29.91 in 10.0 mi North 5.8 mph - 0.01 in Rain Light Rain
3:53 PM 79.0 °F - 73.0 °F 82% 29.90 in 10.0 mi ENE 3.5 mph - 0.01 in   Clear
4:53 PM 79.0 °F - 73.0 °F 82% 29.91 in 10.0 mi Calm Calm - N/A   Mostly Cloudy
5:15 PM 75.2 °F - 71.6 °F 89% 29.94 in 1.5 mi WSW 12.7 mph - 0.00 in Rain Heavy Rain
5:33 PM 73.4 °F - 71.6 °F 94% 29.94 in 3.0 mi SSW 5.8 mph - 0.17 in Rain Light Rain
5:53 PM 73.9 °F - 72.0 °F 93% 29.95 in 6.0 mi SW 5.8 mph - 0.19 in Rain Light Rain
6:53 PM 75.0 °F - 73.0 °F 94% 29.96 in 3.0 mi West 3.5 mph - 0.06 in   Partly Cloudy
7:53 PM 75.0 °F - 73.0 °F 94% 29.96 in 10.0 mi WSW 3.5 mph - N/A   Clear
8:53 PM 75.0 °F - 73.0 °F 94% 29.95 in 10.0 mi Calm Calm - 0.01 in   Clear
9:53 PM 75.0 °F - 73.0 °F 94% 29.96 in 10.0 mi SSE 3.5 mph - N/A   Partly Cloudy
10:53 PM 75.0 °F - 73.0 °F 94% 29.96 in 10.0 mi South 3.5 mph - N/A   Clear